Montgomery, NY

2:48 PM EDT on October 23, 2019 (GMT -0400)
Orange County

Weather History for KMGJ - July, 2019

Change the Weather History Date:

Sunday, July 14, 2019

  Actual Average (WUND) Record (WUND)
Temperature  
Mean Temperature 76 °F -  
Max Temperature 88 °F - - (-1)
Min Temperature 64 °F - - (-1)
Cooling Degree Days 10    
Growing Degree Days 26 (Base 50)    
Moisture  
Dew Point 60 °F    
Average Humidity 63    
Maximum Humidity 93    
Minimum Humidity 35    
Precipitation  
Precipitation 0.00 in - - ()
Sea Level Pressure  
Sea Level Pressure 29.93 in    
Wind  
Wind Speed 5 mph (WNW)    
Max Wind Speed 14 mph    
Max Gust Speed 21 mph    
Visibility 10 miles    
Events      
Averages and records for this station are not official NWS values.
T = Trace of Precipitation, MM = Missing Value Source: NWS Daily Summary

Daily Weather History Graph

Daily Weather History Graph

Search for Another Location

Airport or City:

Astronomy

Jul. 14, 2019 Rise Set
Actual Time 5:35 AM EDT 8:30 PM EDT
Civil Twilight 5:02 AM EDT 9:03 PM EDT
Nautical Twilight 4:20 AM EDT 9:44 PM EDT
Astronomical Twilight 3:31 AM EDT 10:33 PM EDT
Moon 6:50 PM EDT (7/14) 3:34 AM EDT (7/14)
Length of Visible Light 16h 00m
Length of Day
14h 54m
Waxing Gibbous, 95% of the Moon is Illuminated
Jul 14
Waxing Gibbous
Jul 16
Full
Jul 24
Last Quarter
Jul 31
New
Aug 7
First Quarter

Hourly Weather History & Observations

Time (EDT) Temp. Heat Index Dew Point Humidity Pressure Visibility Wind Dir Wind Speed Gust Speed Precip Events Conditions
12:54 AM 69.1 °F - 64.9 °F 87% 29.90 in 10.0 mi Calm Calm - N/A   Clear
1:54 AM 66.0 °F - 64.0 °F 93% 29.89 in 10.0 mi Calm Calm - N/A   Clear
2:54 AM 66.0 °F - 63.0 °F 90% 29.88 in 10.0 mi Calm Calm - N/A   Clear
3:54 AM 66.0 °F - 63.0 °F 90% 29.89 in 10.0 mi SSW 3.5 mph - N/A   Clear
4:54 AM 64.9 °F - 62.1 °F 90% 29.90 in 10.0 mi WSW 3.5 mph - N/A   Clear
5:43 AM 64.0 °F - 62.1 °F 93% 29.91 in 10.0 mi WSW 4.6 mph - N/A   Partly Cloudy
5:54 AM 64.9 °F - 62.1 °F 90% 29.91 in 10.0 mi WSW 6.9 mph - N/A   Partly Cloudy
6:54 AM 70.0 °F - 64.0 °F 81% 29.91 in 10.0 mi WSW 6.9 mph - N/A   Clear
7:54 AM 75.0 °F - 64.9 °F 71% 29.92 in 10.0 mi WSW 5.8 mph - N/A   Clear
8:54 AM 80.1 °F 81.9 °F 64.9 °F 60% 29.93 in 10.0 mi NNW 5.8 mph - N/A   Clear
9:54 AM 82.0 °F 84.1 °F 66.0 °F 58% 29.93 in 10.0 mi WNW 8.1 mph - N/A   Clear
10:54 AM 84.9 °F 85.0 °F 61.0 °F 44% 29.92 in 10.0 mi WNW 11.5 mph - N/A   Scattered Clouds
11:54 AM 84.0 °F 84.0 °F 60.1 °F 44% 29.94 in 10.0 mi NW 11.5 mph - N/A   Scattered Clouds
12:54 PM 86.0 °F 84.7 °F 55.9 °F 36% 29.93 in 10.0 mi NW 13.8 mph 20.7 mph N/A   Clear
1:54 PM 86.0 °F 84.5 °F 55.0 °F 35% 29.92 in 10.0 mi NW 11.5 mph 19.6 mph N/A   Clear
2:54 PM 86.0 °F 84.5 °F 55.0 °F 35% 29.93 in 10.0 mi North 11.5 mph 19.6 mph N/A   Clear
3:54 PM 87.1 °F 85.7 °F 55.9 °F 35% 29.92 in 10.0 mi NW 12.7 mph 18.4 mph N/A   Clear
4:54 PM 86.0 °F 84.7 °F 55.9 °F 36% 29.92 in 10.0 mi NNW 8.1 mph - N/A   Partly Cloudy
5:54 PM 84.9 °F 83.7 °F 55.9 °F 37% 29.93 in 10.0 mi NNW 13.8 mph 20.7 mph N/A   Partly Cloudy
7:54 PM 80.1 °F 80.4 °F 57.0 °F 45% 29.96 in 10.0 mi NW 8.1 mph - N/A   Scattered Clouds
8:54 PM 73.9 °F - 57.9 °F 57% 29.99 in 10.0 mi NW 4.6 mph - N/A   Clear
9:54 PM 69.1 °F - 59.0 °F 70% 30.01 in 10.0 mi West 3.5 mph - N/A   Clear
10:54 PM 68.0 °F - 59.0 °F 73% 30.01 in 10.0 mi Variable 3.5 mph - N/A   Clear
11:54 PM 68.0 °F - 57.0 °F 68% 30.01 in 10.0 mi NW 5.8 mph - N/A   Clear